#timestamp,LO_Frequency,Hit,StdDev 
1531234815.8,286047001.7,N
1531234835.6,286047003.4,N
1531234855.4,286047001.5,N
1531234875.3,286047002.0,N
1531234895.1,286047001.6,N
1531234915.8,286047000.9,N
1531234935.7,286047002.1,N
1531234955.5,286047004.0,N
1531234975.4,286047004.3,N
1531234995.2,286046999.9,N
1531235015.0,286047000.5,N
1531235015.9,286047000.5,N
1531235035.8,286046999.5,N
1531235055.6,286046999.8,N
1531235075.4,286047001.9,N
1531235095.3,286047001.9,N
1531235115.1,286047002.3,N
1531235135.9,286047001.7,N
1531235155.7,286047001.7,N
1531235175.5,286047005.2,Y
1531235195.4,286047001.8,P
1531235215.2,286047000.1,N
1531235235.0,286047002.8,P
1531235236.0,286047002.8,N
1531235255.8,286047003.4,Y
1531235275.6,286047001.9,P
1531235295.5,286047000.1,P
1531235315.3,286046999.7,N
1531235335.1,286047002.0,N
1531235355.9,286047002.7,N
1531235375.7,286046998.5,N
1531235395.6,286046998.1,N
1531235415.4,286047000.8,N
1531235435.2,286046999.9,N
1531235455.1,286047000.0,N
1531235456.0,286047000.0,N
1531235475.8,286047000.1,N
1531235495.7,286047000.5,N
1531235515.5,286047000.5,N
1531235535.3,286046999.8,N
1531235555.2,286047000.0,N
1531235575.0,286047001.8,N
1531235575.9,286047001.8,N
1531235595.8,286047001.9,N
1531235615.6,286047002.7,N
1531235635.4,286047000.5,N
1531235655.3,286047000.4,N
1531235675.1,286046999.7,N
1531235695.8,286047000.2,N
1531235715.7,286047001.1,N
1531235735.5,286046999.7,N
1531235755.4,286047002.8,N
1531235775.2,286047002.4,N
1531235795.0,286047002.5,N
1531235795.9,286047002.5,N
1531235815.8,286047000.4,N
1531235835.6,286046998.2,N
1531235855.4,286047000.8,N
1531235875.3,286046999.9,N
1531235895.1,286046998.1,N
1531235915.9,286047004.4,Y
1531235935.7,286047003.3,P
1531235955.5,286047003.0,N
1531235975.4,286047003.9,P
1531235995.2,286047000.2,N
1531236015.1,286047002.2,N
1531236016.0,286047002.2,N
1531236035.8,286047004.1,Y
1531236055.6,286046998.9,P
1531236075.5,286046998.5,N
1531236095.3,286046999.3,N
1531236115.1,286046998.5,N
1531236135.9,286046999.7,N
1531236155.7,286047002.6,N
1531236175.6,286047002.3,N
1531236195.4,286047000.4,N
1531236215.2,286046998.3,N
1531236235.1,286047000.7,N
1531236236.0,286047000.7,N
1531236255.8,286047001.0,N
1531236275.6,286046998.4,N
1531236295.5,286046998.4,N
1531236315.3,286047001.2,N
1531236335.2,286047002.0,N
1531236355.9,286047001.4,N
1531236375.7,286047002.3,N
1531236395.6,286046998.4,N
1531236415.4,286046999.2,N
1531236435.2,286046996.7,N
1531236455.1,286046997.4,N
1531236456.0,286046997.4,N
1531236475.8,286046997.9,N
1531236495.7,286046997.1,N
1531236515.5,286046995.5,N
1531236535.3,286046997.6,N
1531236555.2,286046995.5,N
1531236575.0,286046995.2,N
1531236575.9,286046995.2,N
1531236595.8,286046995.5,N
1531236615.6,286046996.1,N
1531236635.4,286046996.1,N
1531236655.3,286046995.0,N
1531236675.1,286046997.9,N
1531236695.8,286046997.1,N
1531236715.7,286046997.7,N
1531236735.5,286046995.8,N
1531236755.4,286046995.6,N
1531236775.2,286046993.4,N
1531236795.0,286046994.5,N
1531236795.9,286046994.5,N
1531236815.8,286046993.7,N
1531236835.6,286046993.3,N
1531236855.4,286046995.4,N
1531236875.3,286046995.3,N
1531236895.1,286046995.5,N
1531236915.9,286046997.9,N
1531236935.7,286046997.6,N
1531236955.5,286046997.7,N
1531237005.4,286046997.3,E
1531237015.3,286046996.7,N
1531237035.1,286046998.6,P
1531237055.9,286047000.9,N
1531237075.7,286047000.7,N
1531237095.6,286046999.1,N
1531237115.4,286046995.4,Y
1531237135.2,286046997.4,P
1531237155.1,286046997.2,P
1531237156.0,286046997.2,P
1531237175.8,286046999.1,N
1531237195.7,286046999.6,N
1531237215.5,286046998.1,N
1531237235.3,286047004.3,Y
1531237255.2,286047006.0,P
1531237275.0,286047002.8,N
1531237275.9,286047002.8,N
1531237295.7,286046999.8,N
1531237315.6,286047000.3,N
1531237335.4,286047000.1,N
1531237355.3,286047002.8,N
1531237375.1,286047002.7,N
1531237395.8,286047002.6,N
1531237415.7,286047001.3,N
1531237435.5,286047003.8,N
1531237455.3,286047001.5,N
1531237475.2,286047002.5,N
1531237495.0,286047001.7,N
1531237495.9,286047001.7,N
1531237515.8,286046999.7,N
1531237535.6,286047002.2,N
1531237555.4,286046999.8,N
1531237575.3,286047002.5,N
1531237595.1,286047003.7,N
1531237615.9,286047001.3,N
1531237635.7,286047002.3,N
1531237655.5,286047003.2,N
1531237675.4,286047004.1,N
1531237695.2,286047001.7,N
1531237715.0,286047004.1,N
1531237715.9,286047004.1,N
1531237735.8,286047002.0,N
1531237755.6,286047001.7,N
1531237775.5,286047002.7,N
1531237795.3,286047000.5,N
1531237815.1,286047000.1,N
1531237835.9,286047001.5,N
1531237855.7,286047001.6,N
1531237875.5,286047001.7,N
1531237895.4,286047002.3,N
1531237915.2,286047002.5,N
1531237935.1,286047001.5,N
1531237936.0,286047001.5,N
1531237955.8,286047002.6,N
1531237975.6,286047002.5,N
1531237995.5,286047002.0,N
1531238015.3,286047001.3,N
1531238035.1,286047002.0,N
1531238055.9,286047004.3,Y
1531238075.7,286047000.3,P
1531238095.6,286047002.5,N
1531238115.4,286047000.3,N
1531238135.2,286047000.3,N
1531238155.1,286047002.8,N
1531238156.0,286047002.8,N
1531238175.8,286047003.5,Y
1531238195.7,286047001.8,P
1531238215.5,286046999.9,N
1531238265.4,286047003.2,E
1531238275.3,286047002.3,N
1531238295.1,286046998.7,P
1531238315.9,286046998.8,N
1531238335.7,286046999.9,N
1531238355.5,286047003.9,N
1531238375.4,286047004.0,N
1531238395.2,286047000.1,N
